Springfield, IL

2:40 AM CDT on July 25, 2017 (GMT -0500)
Capital

Weather History for KSPI - February, 2013

Change the Weather History Date:

Tuesday, February 26, 2013

  Actual Average Record
Temperature  
Mean Temperature 34 °F 35 °F  
Max Temperature 36 °F 44 °F 74 °F (1996)
Min Temperature 32 °F 26 °F -22 °F (1963)
Degree Days  
Heating Degree Days 31 30  
Month to date heating degree days 881 887  
Since 1 July heating degree days 3844 4213  
Cooling Degree Days 0 0  
Month to date cooling degree days 0 0  
Year to date cooling degree days 0 0  
Moisture  
Dew Point 31 °F    
Average Humidity 88    
Maximum Humidity 100    
Minimum Humidity 75    
Precipitation  
Precipitation 1.31 in 0.08 in 1.31 in (2013)
Month to date precipitation 2.79 1.66  
Year to date precipitation 5.51 3.48  
Snow  
Snow 1.10 in 0.20 in 4.60 in (1977)
Month to date snowfall 7.3 5.2  
Since 1 July snowfall 11.9 17.8  
Snow Depth 0.00 in    
Sea Level Pressure  
Sea Level Pressure 29.53 in    
Wind  
Wind Speed 15 mph (NE)    
Max Wind Speed 32 mph    
Max Gust Speed 41 mph    
Visibility 5 miles    
Events Rain , Snow    
T = Trace of Precipitation, MM = Missing Value Source: NWS Daily Summary

Daily Weather History Graph

Daily Weather History Graph

Search for Another Location

Airport or City:

Trip Planner

Search our weather history database for the weather conditions in past years. The results will help you decide how hot, cold, wet, or windy it might be!

Date:

Astronomy

Feb. 26, 2013 Rise Set
Actual Time 6:35 AM CST 5:47 PM CST
Civil Twilight 6:08 AM CST 6:14 PM CST
Nautical Twilight 5:37 AM CST 6:46 PM CST
Astronomical Twilight 5:06 AM CST 7:17 PM CST
Moon 7:04 PM CST (2/26) 6:38 AM CST (2/26)
Length of Visible Light 12h 06m
Length of Day
11h 11m
Full, 99% of the Moon is Illuminated
Feb 26
Full
Mar 4
Last Quarter
Mar 11
New
Mar 19
First Quarter
Mar 27
Full

Hourly Weather History & Observations

Time (CST) Temp. Windchill Dew Point Humidity Pressure Visibility Wind Dir Wind Speed Gust Speed Precip Events Conditions
12:52 AM 35.1 °F 23.8 °F 30.0 °F 82% 29.74 in 7.0 mi NE 20.7 mph 31.1 mph 0.00 in Rain Light Rain
12:59 AM 35.6 °F 24.5 °F 30.2 °F 81% 29.72 in 10.0 mi NE 20.7 mph 28.8 mph 0.00 in Rain Light Freezing Rain
1:27 AM 35.6 °F 25.2 °F 30.2 °F 81% 29.69 in 10.0 mi NE 18.4 mph 26.5 mph 0.01 in   Overcast
1:36 AM 35.6 °F 24.8 °F 30.2 °F 81% 29.68 in 9.0 mi NE 19.6 mph - 0.01 in Rain Light Freezing Rain
1:52 AM 34.0 °F 21.8 °F 30.0 °F 85% 29.67 in 6.0 mi ENE 23.0 mph - 0.03 in Rain Light Freezing Rain
2:00 AM 33.8 °F 21.9 °F 30.2 °F 87% 29.65 in 6.0 mi NE 21.9 mph - 0.01 in Rain Light Freezing Rain
2:07 AM 33.8 °F 22.2 °F 30.2 °F 87% 29.64 in 6.0 mi NE 20.7 mph 28.8 mph 0.01 in Snow Light Snow
2:45 AM 33.8 °F 22.5 °F 30.2 °F 87% 29.61 in 8.0 mi ENE 19.6 mph 34.5 mph 0.03 in Rain Light Freezing Rain
2:52 AM 34.0 °F 22.1 °F 30.0 °F 85% 29.63 in 6.0 mi ENE 21.9 mph 33.4 mph 0.04 in Rain Light Freezing Rain
3:11 AM 33.8 °F 22.2 °F 30.2 °F 87% 29.61 in 4.0 mi ENE 20.7 mph 27.6 mph 0.01 in Rain Light Freezing Rain
3:35 AM 33.8 °F 22.2 °F 30.2 °F 87% 29.58 in 4.0 mi ENE 20.7 mph 33.4 mph 0.06 in Snow Light Snow
3:52 AM 33.1 °F 19.6 °F 30.9 °F 92% 29.55 in 3.0 mi NE 27.6 mph 35.7 mph 0.12 in Rain Light Freezing Rain
4:37 AM 33.8 °F 21.0 °F 30.2 °F 87% 29.51 in 2.5 mi ENE 25.3 mph 35.7 mph 0.23 in Rain Light Freezing Rain
4:52 AM 33.1 °F 19.8 °F 30.9 °F 92% 29.52 in 2.5 mi ENE 26.5 mph 38.0 mph 0.32 in Rain Heavy Rain
5:01 AM 33.8 °F 21.0 °F 30.2 °F 87% 29.50 in 2.5 mi NE 25.3 mph 40.3 mph 0.06 in Rain Light Freezing Rain
5:13 AM 33.8 °F 21.6 °F 30.2 °F 87% 29.51 in 2.5 mi ENE 23.0 mph 34.5 mph 0.12 in Rain Light Freezing Rain
5:22 AM 33.8 °F 21.3 °F 30.2 °F 87% 29.50 in 2.5 mi ENE 24.2 mph 34.5 mph 0.18 in Rain Light Freezing Rain
5:25 AM 33.8 °F 21.3 °F 30.2 °F 87% 29.50 in 3.0 mi ENE 24.2 mph 34.5 mph 0.19 in Rain Heavy Rain
5:33 AM 33.8 °F 21.3 °F 30.2 °F 87% 29.50 in 3.0 mi ENE 24.2 mph 38.0 mph 0.22 in Rain Light Freezing Rain
5:47 AM 33.8 °F 21.3 °F 30.2 °F 87% 29.49 in 3.0 mi ENE 24.2 mph 33.4 mph 0.28 in Rain Light Freezing Rain
5:52 AM 33.1 °F 20.3 °F 30.9 °F 92% 29.50 in 3.0 mi ENE 24.2 mph 33.4 mph 0.29 in Rain Light Freezing Rain
6:21 AM 33.8 °F 21.6 °F 30.2 °F 87% 29.49 in 3.0 mi ENE 23.0 mph 36.8 mph 0.06 in Rain Rain
6:52 AM 33.1 °F 20.9 °F 30.9 °F 92% 29.49 in 6.0 mi ENE 21.9 mph 33.4 mph 0.08 in   Overcast
7:52 AM 33.1 °F 20.9 °F 32.0 °F 96% 29.48 in 3.0 mi ENE 21.9 mph 27.6 mph N/A   Overcast
8:52 AM 34.0 °F 22.1 °F 32.0 °F 92% 29.47 in 4.0 mi ENE 21.9 mph - N/A   Overcast
9:52 AM 34.0 °F 23.8 °F 33.1 °F 96% 29.46 in 4.0 mi ENE 16.1 mph 25.3 mph N/A   Overcast
10:52 AM 34.0 °F 23.8 °F 32.0 °F 92% 29.45 in 5.0 mi ENE 16.1 mph - N/A   Overcast
11:52 AM 34.0 °F 25.0 °F 32.0 °F 92% 29.45 in 5.0 mi ENE 12.7 mph - 0.01 in   Overcast
12:52 PM 35.1 °F 27.4 °F 33.1 °F 92% 29.43 in 5.0 mi NE 10.4 mph - 0.07 in Rain Light Rain
1:52 PM 34.0 °F 24.6 °F 33.1 °F 96% 29.43 in 8.0 mi NNE 13.8 mph - 0.02 in Rain Light Rain
2:52 PM 33.1 °F 24.9 °F 32.0 °F 96% 29.44 in 3.0 mi North 10.4 mph - 0.00 in Snow Snow
2:56 PM 33.8 °F 25.8 °F 32.0 °F 93% 29.44 in 1.8 mi NNE 10.4 mph - 0.01 in Snow Snow
3:08 PM 33.8 °F 25.8 °F 32.0 °F 93% 29.44 in 1.2 mi North 10.4 mph - 0.02 in Snow Snow
3:15 PM 33.8 °F 25.3 °F 32.0 °F 93% 29.44 in 1.8 mi North 11.5 mph - 0.02 in Snow Snow
3:39 PM 33.8 °F 25.3 °F 32.0 °F 93% 29.45 in 1.0 mi NNE 11.5 mph - 0.03 in Snow Snow
3:52 PM 33.1 °F 25.5 °F 32.0 °F 96% 29.46 in 0.8 mi North 9.2 mph - 0.04 in Snow Light Snow
4:52 PM 32.0 °F 23.6 °F 32.0 °F 100% 29.49 in 0.5 mi North 10.4 mph - 0.09 in Snow Light Snow
5:49 PM 32.0 °F 24.2 °F 32.0 °F 100% 29.49 in 1.5 mi North 9.2 mph - 0.06 in Snow Light Snow
5:52 PM 32.0 °F 24.2 °F 32.0 °F 100% 29.51 in 2.0 mi North 9.2 mph - 0.06 in Snow Light Snow
6:52 PM 33.1 °F 26.1 °F 32.0 °F 96% 29.53 in 3.0 mi NNW 8.1 mph - 0.01 in Snow Light Snow
7:52 PM 33.1 °F 25.5 °F 32.0 °F 96% 29.55 in 7.0 mi NNW 9.2 mph - 0.00 in Snow Light Snow
8:52 PM 33.1 °F 25.5 °F 30.9 °F 92% 29.57 in 9.0 mi NNW 9.2 mph - 0.00 in Snow Light Snow
9:52 PM 33.1 °F 26.9 °F 30.9 °F 92% 29.59 in 9.0 mi NW 6.9 mph - 0.00 in   Overcast
10:52 PM 33.1 °F 26.1 °F 30.9 °F 92% 29.59 in 9.0 mi WNW 8.1 mph - N/A   Overcast
11:52 PM 32.0 °F 23.6 °F 30.9 °F 96% 29.60 in 10.0 mi WNW 10.4 mph - N/A   Overcast